This is the latest recevied weather packets stored in our database for station/object K1TTC. If no packets are shown the sender has not sent any weather packets the latest 10 day(s).
| Time | Temp. | Humidity | Pressure | Rain* | Wind** | Luminosity | Snow |
|---|---|---|---|---|---|---|---|
| 1777980782 | 13.89° C | 62% | 1010.8 hPa | 0 mm | - | 70 W/m² | - |
| 1777980183 | 13.33° C | 62% | 1010.8 hPa | 0 mm | - | 60 W/m² | - |
| 1777979581 | 13.33° C | 63% | 1010.8 hPa | 0 mm | - | 63 W/m² | - |
| 1777978983 | 12.78° C | 64% | 1010.9 hPa | 0 mm | - | 90 W/m² | - |
| 1777978380 | 12.22° C | 64% | 1010.7 hPa | 0 mm | - | 53 W/m² | - |
| 1777977779 | 12.22° C | 64% | 1010.8 hPa | 0 mm | - | 84 W/m² | - |
| 1777977179 | 11.67° C | 64% | 1011 hPa | 0 mm | - | 70 W/m² | - |
| 1777976580 | 11.67° C | 64% | 1010.9 hPa | 0 mm | - | 35 W/m² | - |
| 1777976070 | 11.67° C | 64% | 1010.9 hPa | 0 mm | - | 28 W/m² | - |
| 1777975380 | 11.67° C | 64% | 1010.9 hPa | 0 mm | - | 12 W/m² | - |
| 1777974779 | 11.67° C | 63% | 1010.8 hPa | 0 mm | - | 7 W/m² | - |
| 1777974179 | 11.67° C | 63% | 1010.9 hPa | 0 mm | - | 0 W/m² | - |
| 1777973580 | 11.67° C | 63% | 1010.9 hPa | 0 mm | - | 0 W/m² | - |
| 1777972974 | 11.67° C | 62% | 1010.9 hPa | 0 mm | - | 0 W/m² | - |
| 1777972374 | 11.67° C | 62% | 1011 hPa | 0 mm | - | 0 W/m² | - |
| 1777971842 | 11.67° C | 62% | 1011 hPa | 0 mm | - | 0 W/m² | - |
| 1777971173 | 11.67° C | 61% | 1010.9 hPa | 0 mm | - | 0 W/m² | - |
| 1777970576 | 11.67° C | 61% | 1011.2 hPa | 0 mm | - | 0 W/m² | - |
| 1777969971 | 11.67° C | 61% | 1011.1 hPa | 0 mm | - | 0 W/m² | - |
| 1777969370 | 11.67° C | 60% | 1011.1 hPa | 0 mm | - | 0 W/m² | - |
| 1777968770 | 11.67° C | 60% | 1011.1 hPa | 0 mm | - | 0 W/m² | - |
| 1777968170 | 11.67° C | 60% | 1011.1 hPa | 0 mm | - | 0 W/m² | - |
| 1777967569 | 11.67° C | 60% | 1011.2 hPa | 0 mm | - | 0 W/m² | - |
| 1777966969 | 11.67° C | 60% | 1011.3 hPa | 0 mm | - | 0 W/m² | - |
| 1777966369 | 11.67° C | 60% | 1011.3 hPa | 0 mm | - | 0 W/m² | - |
* Rain latest hour (hover to see other rain measurements)
** Current wind speed in m/s (hover to see current wind gust speed)